Weather History for Watsonville, CA

Change the Weather History Date:

Saturday, May 25, 2013

  Actual Average Record
Temperature  
Mean Temperature 55 °F 60 °F  
Max Temperature 66 °F 71 °F 73 °F (2006)
Min Temperature 43 °F 48 °F 43 °F (2013)
Degree Days  
Heating Degree Days 10    
Month to date heating degree days 139  
Since 1 July heating degree days 2891  
Cooling Degree Days 0    
Month to date cooling degree days 6  
Year to date cooling degree days 6  
Growing Degree Days 4 (Base 50)    
Moisture  
Dew Point 44 °F    
Average Humidity 67    
Maximum Humidity 89    
Minimum Humidity 45    
Precipitation  
Precipitation 0.00 in - 0.81 in (1993)
Month to date precipitation T  
Year to date precipitation 2.34  
Since 1 July precipitation 13.28  
Sea Level Pressure  
Sea Level Pressure 30.06 in    
Wind  
Wind Speed 5 mph (East)    
Max Wind Speed 13 mph    
Max Gust Speed 22 mph    
Visibility 10 miles    
Events      
T = Trace of Precipitation, MM = Missing Value Source: NWS Daily Summary

Daily Weather History Graph

Daily Weather History Graph

Search for Another Location

Airport:

Trip Planner

Search our weather history database for the weather conditions in past years. The results will help you decide how hot, cold, wet, or windy it might be!

Date:

Astronomy

May. 25, 2013 Rise Set
Actual Time 5:52 AM PDT 8:16 PM PDT
Civil Twilight 5:22 AM PDT 8:46 PM PDT
Nautical Twilight 4:45 AM PDT 9:23 PM PDT
Astronomical Twilight 4:05 AM PDT 10:03 PM PDT
Moon 9:10 PM PDT (5/25) 6:23 AM PDT (5/25)
Length of Visible Light 15h 23m
Length of Day
14h 24m
Waxing Gibbous, 99% of the Moon is Illuminated
May 25
Waxing Gibbous
May 31
Last Quarter
Jun 8
New
Jun 16
First Quarter
Jun 23
Full

Hourly Weather History & Observations

Time (PDT) Temp. Windchill Dew Point Humidity Pressure Visibility Wind Dir Wind Speed Gust Speed Precip Events Conditions
12:53 AM 46.0 °F - 41.0 °F 83% 30.04 in 10.0 mi Calm Calm - N/A   Clear
1:53 AM 45.0 °F 43.5 °F 39.9 °F 82% 30.04 in 10.0 mi NW 3.5 mph - N/A   Clear
2:53 AM 45.0 °F 43.5 °F 39.9 °F 82% 30.04 in 10.0 mi WNW 3.5 mph - N/A   Clear
3:53 AM 44.1 °F - 39.9 °F 85% 30.03 in 10.0 mi Calm Calm - N/A   Partly Cloudy
4:53 AM 43.0 °F - 39.0 °F 86% 30.04 in 10.0 mi Calm Calm - N/A   Clear
5:53 AM 43.0 °F 41.3 °F 39.9 °F 89% 30.04 in 10.0 mi NW 3.5 mph - N/A   Scattered Clouds
6:04 AM 42.8 °F 40.1 °F 39.2 °F 87% 30.04 in 10.0 mi NW 4.6 mph - N/A   Mostly Cloudy
6:53 AM 46.0 °F - 41.0 °F 83% 30.05 in 10.0 mi Calm Calm - N/A   Overcast
7:53 AM 50.0 °F - 44.1 °F 80% 30.06 in 10.0 mi Calm Calm - N/A   Overcast
8:53 AM 53.1 °F - 44.1 °F 71% 30.06 in 10.0 mi Calm Calm - N/A   Overcast
9:53 AM 55.9 °F - 44.1 °F 64% 30.06 in 10.0 mi SW 5.8 mph - N/A   Overcast
10:53 AM 57.0 °F - 43.0 °F 59% 30.07 in 10.0 mi Variable 4.6 mph - N/A   Mostly Cloudy
11:05 AM 59.0 °F - 44.6 °F 59% 30.06 in 10.0 mi SE 8.1 mph - N/A   Scattered Clouds
11:53 AM 61.0 °F - 44.1 °F 54% 30.06 in 10.0 mi SE 6.9 mph - N/A   Clear
12:53 PM 62.1 °F - 44.1 °F 52% 30.06 in 10.0 mi WSW 10.4 mph - N/A   Clear
1:53 PM 63.0 °F - 45.0 °F 52% 30.06 in 10.0 mi South 9.2 mph - N/A   Clear
2:53 PM 64.9 °F - 44.1 °F 47% 30.05 in 10.0 mi SSE 8.1 mph - N/A   Clear
3:53 PM 66.0 °F - 44.1 °F 45% 30.04 in 10.0 mi ESE 9.2 mph - N/A   Clear
4:53 PM 64.0 °F - 46.0 °F 52% 30.04 in 10.0 mi East 12.7 mph - N/A   Clear
5:53 PM 63.0 °F - 46.9 °F 56% 30.04 in 10.0 mi East 6.9 mph - N/A   Clear
6:53 PM 61.0 °F - 46.9 °F 60% 30.04 in 10.0 mi ENE 9.2 mph - N/A   Clear
7:53 PM 57.0 °F - 46.0 °F 67% 30.06 in 10.0 mi ENE 9.2 mph - N/A   Clear
8:53 PM 54.0 °F - 46.9 °F 77% 30.07 in 10.0 mi NE 5.8 mph - N/A   Clear
9:53 PM 53.1 °F - 46.9 °F 80% 30.09 in 10.0 mi ENE 5.8 mph - N/A   Clear
10:53 PM 52.0 °F - 46.9 °F 83% 30.10 in 10.0 mi NE 3.5 mph - N/A   Clear
11:53 PM 50.0 °F - 46.0 °F 86% 30.10 in 10.0 mi Calm Calm - N/A   Clear